Tracking 27122 objects as of 24-Mar-2023
HD Live streaming from Space Station
objects crossing your sky now

COSMOS 1275 DEB

Track COSMOS 1275 DEB now!
10-day predictions


NORAD ID: 42161
Int'l Code: 1981-053RZ
Perigee: 887.2 km
Apogee: 967.6 km
Inclination: 82.9 °
Period: 103.4 minutes
Semi major axis: 7298 km
RCS: Unknown
Launch date: June 4, 1981
Source: Commonwealth of Independent States (former USSR) (CIS)
Launch site: PLESETSK MISSILE AND SPACE COMPLEX (PKMTR)

Note: This is SATELLITE DEBRIS
Your satellite tracking list
Your tracking list is empty




NASA's NSSDC Master Catalog

Two Line Element Set (TLE):
1 42161U 81053RZ  23077.84260872  .00002253  00000-0  17201-2 0  9992
2 42161  82.9287 277.7001 0055124 209.4222 164.1309 13.92396379975012
Source of the keplerian elements: AFSPC